Location: Lac de la Montange Noire
(46.1952°N, 74.2701°W)
Time: 22:08:02
(UTC-04:00)

Iridium 42 - Visible Passes

Search period start: 28 July 2016 00:00
Search period end: 07 August 2016 00:00
Orbit: 775 x 778 km, 86.4° (Epoch: 28 July)

Date Brightness Start Highest point End Pass type
(mag) Time Alt. Az. Time Alt. Az. Time Alt. Az.
28 Jul 8.0 00:56:53 10° NE 00:58:22 11° ENE 00:59:52 10° E visible
28 Jul 5.5 02:34:44 10° N 02:39:59 80° E 02:41:54 40° SSE visible
28 Jul 7.4 04:17:21 10° NW 04:19:57 14° WNW 04:22:20 10° WSW visible
29 Jul 6.3 02:01:05 10° N 02:06:05 45° E 02:07:56 32° SE visible
29 Jul 6.8 03:42:23 10° NNW 03:46:30 24° W 03:48:22 20° WSW visible
30 Jul 7.1 01:27:42 10° NNE 01:32:05 26° ENE 01:33:59 21° ESE visible
30 Jul 6.1 03:08:02 10° NNW 03:12:56 42° W 03:14:24 34° SW visible
31 Jul 7.7 00:54:52 10° NE 00:57:55 15° ENE 01:00:03 13° E visible
31 Jul 5.4 02:34:01 10° N 02:39:15 74° W 02:40:28 52° SSW visible
01 Aug 5.8 02:00:14 10° N 02:05:26 63° E 02:06:32 50° SE visible
01 Aug 7.2 03:42:11 10° NW 03:45:35 18° WNW 03:46:58 16° W visible
02 Aug 6.6 01:26:41 10° NNE 01:31:29 36° E 01:32:37 32° ESE visible
02 Aug 6.5 03:07:34 10° NNW 03:12:05 30° W 03:13:03 28° WSW visible
03 Aug 7.3 00:53:29 10° NNE 00:57:25 21° ENE 00:58:42 19° E visible
03 Aug 5.7 02:33:23 10° NNW 02:38:29 53° W 02:39:08 50° WSW visible
04 Aug 7.9 00:21:10 10° NE 00:23:11 12° ENE 00:24:47 11° E visible
04 Aug 5.4 01:59:28 10° N 02:04:44 87° E 02:05:14 74° SSE visible
04 Aug 7.5 03:42:22 10° NW 03:44:38 13° WNW 03:45:40 12° W visible
05 Aug 6.0 01:25:47 10° N 01:30:52 49° E 01:31:20 47° E visible
05 Aug 6.9 03:07:13 10° NNW 03:11:12 22° W 03:11:46 22° W visible
06 Aug 6.9 00:52:22 10° NNE 00:56:52 28° ENE 00:57:27 28° E visible
06 Aug 6.2 02:32:50 10° NNW 02:37:39 39° W 02:37:53 38° W visible
